Weather History for KLXV - May, 2013

Change the Weather History Date:

Sunday, May 12, 2013

  Actual Average Record
Temperature  
Mean Temperature 43 °F -  
Max Temperature 57 °F 53 °F 65 °F (1988)
Min Temperature 29 °F 26 °F 16 °F (2000)
Degree Days  
Heating Degree Days 22 25  
Month to date heating degree days 378 326  
Since 1 July heating degree days 10348 10327  
Cooling Degree Days 0 0  
Month to date cooling degree days 0 0  
Year to date cooling degree days 0 0  
Moisture  
Dew Point 25 °F    
Average Humidity 55    
Maximum Humidity 85    
Minimum Humidity 24    
Precipitation  
Precipitation T in 0.03 in 0.18 in (1985)
Month to date precipitation 1.40 0.35  
Year to date precipitation 6.91 3.68  
Sea Level Pressure  
Sea Level Pressure 30.18 in    
Wind  
Wind Speed 7 mph (North)    
Max Wind Speed 21 mph    
Max Gust Speed 25 mph    
Visibility 10 miles    
Events      
T = Trace of Precipitation, MM = Missing Value Source: NWS Daily Summary

Daily Weather History Graph

Daily Weather History Graph

Search for Another Location

Airport or City:

Trip Planner

Search our weather history database for the weather conditions in past years. The results will help you decide how hot, cold, wet, or windy it might be!

Date:

Astronomy

May. 12, 2013 Rise Set
Actual Time 5:54 AM MDT 8:09 PM MDT
Civil Twilight 5:24 AM MDT 8:39 PM MDT
Nautical Twilight 4:47 AM MDT 9:16 PM MDT
Astronomical Twilight 4:07 AM MDT 9:56 PM MDT
Moon 7:52 AM MDT (5/12) 10:38 PM MDT (5/12)
Length of Visible Light 15h 14m
Length of Day
14h 14m
Waxing Crescent, 7% of the Moon is Illuminated
May 12
Waxing Crescent
May 17
First Quarter
May 24
Full
May 31
Last Quarter
Jun 8
New

Hourly Weather History & Observations

Time (MDT) Temp. Windchill Dew Point Humidity Pressure Visibility Wind Dir Wind Speed Gust Speed Precip Events Conditions
12:53 AM 33.1 °F 30.0 °F 27.0 °F 78% 30.18 in 10.0 mi North 3.5 mph - N/A   Overcast
1:53 AM 32.0 °F - 26.1 °F 79% 30.17 in 10.0 mi Calm Calm - N/A   Overcast
2:53 AM 35.1 °F 29.3 °F 27.0 °F 72% 30.16 in 10.0 mi NNE 6.9 mph - N/A   Overcast
3:53 AM 32.0 °F - 27.0 °F 82% 30.16 in 10.0 mi Calm Calm - 0.00 in   Partly Cloudy
4:53 AM 30.9 °F 26.2 °F 27.0 °F 85% 30.18 in 10.0 mi East 4.6 mph - N/A   Mostly Cloudy
5:53 AM 32.0 °F 26.4 °F 27.0 °F 82% 30.18 in 10.0 mi ESE 5.8 mph - N/A   Clear
6:53 AM 30.2 °F - 26.6 °F 86% 30.49 in 10.0 mi Calm Calm - N/A   Clear
7:53 AM 37.0 °F 34.5 °F 28.9 °F 73% 30.20 in 10.0 mi NNE 3.5 mph - N/A   Mostly Cloudy
8:53 AM 44.6 °F - 26.6 °F 49% 30.49 in 10.0 mi Calm Calm - N/A   Clear
9:53 AM 48.0 °F - 26.1 °F 42% 30.14 in 10.0 mi Variable 3.5 mph - N/A   Mostly Cloudy
10:53 AM 50.0 °F - 24.8 °F 37% 30.48 in 10.0 mi NNW 11.5 mph 20.7 mph N/A   Mostly Cloudy
11:53 AM 51.1 °F - 21.9 °F 32% 30.14 in 10.0 mi NNW 10.4 mph 19.6 mph N/A   Overcast
12:53 PM 51.1 °F - 23.0 °F 33% 30.14 in 10.0 mi NW 15.0 mph 23.0 mph N/A   Mostly Cloudy
1:53 PM 54.0 °F - 21.9 °F 29% 30.13 in 10.0 mi WNW 17.3 mph - N/A   Overcast
2:53 PM 57.0 °F - 21.9 °F 26% 30.09 in 10.0 mi NNW 12.7 mph 18.4 mph N/A   Overcast
3:53 PM 55.0 °F - 23.0 °F 29% 30.10 in 10.0 mi NNW 11.5 mph 17.3 mph N/A   Overcast
4:53 PM 55.0 °F - 24.1 °F 30% 30.11 in 10.0 mi NNW 12.7 mph 20.7 mph N/A   Overcast
5:53 PM 55.0 °F - 24.1 °F 30% 30.09 in 10.0 mi NW 15.0 mph 23.0 mph N/A   Overcast
6:53 PM 55.0 °F - 24.1 °F 30% 30.12 in 10.0 mi NNW 11.5 mph 18.4 mph N/A   Overcast
7:53 PM 48.9 °F - 26.1 °F 41% 30.12 in 10.0 mi WNW 5.8 mph - N/A   Clear
8:53 PM 42.1 °F 40.2 °F 24.1 °F 49% 30.14 in 10.0 mi NE 3.5 mph - N/A   Clear
9:53 PM 39.9 °F 37.8 °F 23.0 °F 51% 30.14 in 10.0 mi NE 3.5 mph - N/A   Clear
10:53 PM 39.9 °F 35.8 °F 23.0 °F 51% 30.13 in 10.0 mi East 5.8 mph - N/A   Clear
11:53 PM 37.0 °F - 23.0 °F 57% 30.15 in 10.0 mi Calm Calm - N/A   Clear